CEB456 RPLL-RPVI

Flight info

Callsign CEB456
Flight time 0h 47m
Altitude 33000
Route VERDE2P VERDE W24 TAPER B472 LAMBO LAMBO2N
Aircraft A20N/M-SDE2E3FGHIRWXY/LB1

Departure

Time 2026-04-18 08:56
Airport Ninoy Aquino International Airport (RPLL)

Arrival

Time 2026-04-18 09:44
Airport Iloilo International Airport (RPVI)
Time Latitude Longitude Altitude Speed Heading
2026-04-18 08:18 14.51683 121.01698 65 ft 0 kts 197°
2026-04-18 08:42 14.51691 121.01700 61 ft 2 kts 195°
2026-04-18 08:42 14.51707 121.01705 62 ft 2 kts 196°
2026-04-18 08:43 14.51723 121.01710 65 ft 2 kts 195°
2026-04-18 08:43 14.51739 121.01714 66 ft 2 kts 188°
2026-04-18 08:43 14.51756 121.01714 61 ft 2 kts 153°
2026-04-18 08:43 14.51764 121.01708 66 ft 1 kts 135°
2026-04-18 08:47 14.51761 121.01711 63 ft 2 kts 135°
2026-04-18 08:47 14.51745 121.01727 66 ft 1 kts 135°
2026-04-18 08:47 14.51730 121.01743 64 ft 5 kts 135°
2026-04-18 08:47 14.51690 121.01778 65 ft 10 kts 150°
2026-04-18 08:48 14.51621 121.01773 67 ft 8 kts 212°
2026-04-18 08:48 14.51572 121.01722 68 ft 10 kts 224°
2026-04-18 08:48 14.51528 121.01677 62 ft 11 kts 225°
2026-04-18 08:48 14.51485 121.01635 66 ft 6 kts 223°
2026-04-18 08:49 14.51473 121.01624 63 ft 3 kts 220°
2026-04-18 08:49 14.51444 121.01609 59 ft 6 kts 191°
2026-04-18 08:49 14.51407 121.01640 66 ft 9 kts 133°
2026-04-18 08:49 14.51353 121.01696 62 ft 13 kts 134°
2026-04-18 08:50 14.51288 121.01763 66 ft 14 kts 135°
2026-04-18 08:50 14.51233 121.01819 66 ft 10 kts 135°
2026-04-18 08:50 14.51178 121.01876 68 ft 9 kts 135°
2026-04-18 08:50 14.51123 121.01934 68 ft 13 kts 135°
2026-04-18 08:51 14.51061 121.02000 63 ft 9 kts 117°
2026-04-18 08:51 14.51079 121.02057 67 ft 10 kts 60°
2026-04-18 08:51 14.51122 121.02133 69 ft 14 kts 59°
2026-04-18 08:51 14.51176 121.02231 64 ft 17 kts 61°
2026-04-18 08:52 14.51242 121.02350 61 ft 21 kts 59°
2026-04-18 08:52 14.51306 121.02463 65 ft 14 kts 59°
2026-04-18 08:52 14.51356 121.02554 66 ft 15 kts 61°
2026-04-18 08:52 14.51415 121.02660 67 ft 19 kts 59°
2026-04-18 08:53 14.51472 121.02762 65 ft 16 kts 59°
2026-04-18 08:53 14.51486 121.02787 65 ft 3 kts 59°
2026-04-18 08:53 14.51498 121.02833 68 ft 9 kts 98°
2026-04-18 08:53 14.51482 121.02853 63 ft 2 kts 147°
2026-04-18 08:54 14.51453 121.02869 65 ft 7 kts 156°
2026-04-18 08:54 14.51390 121.02872 62 ft 11 kts 202°
2026-04-18 08:54 14.51347 121.02819 65 ft 0 kts 240°
2026-04-18 08:55 14.51334 121.02796 67 ft 24 kts 240°
2026-04-18 08:56 14.51127 121.02419 68 ft 94 kts 240°
2026-04-18 08:56 14.50704 121.01661 63 ft 146 kts 239°
2026-04-18 08:56 14.50123 121.00693 432 ft 156 kts 240°
2026-04-18 08:56 14.49580 120.99716 1027 ft 161 kts 241°
2026-04-18 08:57 14.48503 120.97705 2199 ft 170 kts 240°
2026-04-18 08:57 14.47879 120.96572 2553 ft 190 kts 240°
2026-04-18 08:57 14.47196 120.95340 2931 ft 213 kts 239°
2026-04-18 08:58 14.46412 120.93937 3421 ft 237 kts 239°
2026-04-18 08:58 14.45519 120.92363 3642 ft 266 kts 239°
2026-04-18 08:58 14.44583 120.90698 3736 ft 270 kts 239°
2026-04-18 08:58 14.43379 120.89206 4112 ft 274 kts 215°
2026-04-18 08:59 14.41632 120.88457 5079 ft 274 kts 187°
2026-04-18 08:59 14.39743 120.88533 6178 ft 273 kts 170°
2026-04-18 08:59 14.37843 120.88842 7096 ft 280 kts 169°
2026-04-18 08:59 14.35901 120.89169 7981 ft 286 kts 169°
2026-04-18 09:00 14.33904 120.89501 8871 ft 293 kts 169°
2026-04-18 09:00 14.31864 120.89837 9754 ft 300 kts 169°
2026-04-18 09:00 14.29808 120.90171 10481 ft 310 kts 169°
2026-04-18 09:00 14.27565 120.90537 10823 ft 335 kts 169°
2026-04-18 09:01 14.25200 120.90973 11155 ft 356 kts 167°
2026-04-18 09:01 14.22758 120.91461 11741 ft 365 kts 169°
2026-04-18 09:01 14.20240 120.91858 12669 ft 366 kts 169°
2026-04-18 09:01 14.17733 120.92295 13708 ft 357 kts 168°
2026-04-18 09:02 14.16043 120.92595 14444 ft 355 kts 170°
2026-04-18 09:02 14.14646 120.92807 14812 ft 360 kts 170°
2026-04-18 09:03 14.12099 120.93158 15093 ft 379 kts 171°
2026-04-18 09:03 14.09460 120.93532 15659 ft 385 kts 171°
2026-04-18 09:03 14.06800 120.93938 16331 ft 389 kts 170°
2026-04-18 09:03 14.04114 120.94368 17012 ft 392 kts 170°
2026-04-18 09:04 14.01408 120.94809 17646 ft 396 kts 169°
2026-04-18 09:04 13.98672 120.95260 18274 ft 400 kts 169°
2026-04-18 09:04 13.95915 120.95715 18855 ft 402 kts 169°
2026-04-18 09:04 13.93147 120.96171 19421 ft 404 kts 169°
2026-04-18 09:05 13.90350 120.96630 19982 ft 407 kts 170°
2026-04-18 09:05 13.87580 120.97085 20555 ft 409 kts 170°
2026-04-18 09:05 13.84718 120.97555 21136 ft 412 kts 170°
2026-04-18 09:05 13.81920 120.98010 21729 ft 413 kts 171°
2026-04-18 09:06 13.79076 120.98472 22307 ft 415 kts 171°
2026-04-18 09:06 13.76218 120.98940 22865 ft 417 kts 171°
2026-04-18 09:06 13.73343 120.99411 23412 ft 419 kts 171°
2026-04-18 09:06 13.70456 120.99885 23857 ft 422 kts 171°
2026-04-18 09:07 13.67547 121.00362 24262 ft 425 kts 171°
2026-04-18 09:07 13.64613 121.00843 24659 ft 428 kts 171°
2026-04-18 09:07 13.61666 121.01325 25079 ft 430 kts 171°
2026-04-18 09:07 13.58692 121.01813 25469 ft 433 kts 171°
2026-04-18 09:08 13.55704 121.02302 25881 ft 436 kts 171°
2026-04-18 09:08 13.52718 121.02916 26260 ft 439 kts 165°
2026-04-18 09:08 13.49828 121.03971 26631 ft 443 kts 156°
2026-04-18 09:08 13.47096 121.05465 26997 ft 446 kts 148°
2026-04-18 09:09 13.44563 121.07247 27349 ft 449 kts 146°
2026-04-18 09:09 13.41987 121.09071 27716 ft 451 kts 146°
2026-04-18 09:09 13.39390 121.10899 28065 ft 454 kts 146°
2026-04-18 09:09 13.36780 121.12733 28415 ft 456 kts 146°
2026-04-18 09:10 13.34148 121.14581 28749 ft 459 kts 146°
2026-04-18 09:10 13.31508 121.16433 29082 ft 461 kts 146°
2026-04-18 09:10 13.28849 121.18298 29418 ft 463 kts 146°
2026-04-18 09:10 13.26180 121.20170 29734 ft 466 kts 146°
2026-04-18 09:11 13.23495 121.22053 30045 ft 468 kts 146°
2026-04-18 09:11 13.20803 121.23941 30370 ft 469 kts 146°
2026-04-18 09:11 13.18103 121.25835 30696 ft 470 kts 146°
2026-04-18 09:11 13.15397 121.27731 31021 ft 472 kts 146°
2026-04-18 09:12 13.12714 121.29611 31421 ft 471 kts 147°
2026-04-18 09:12 13.10009 121.31506 31868 ft 469 kts 147°
2026-04-18 09:12 13.07325 121.33386 32309 ft 467 kts 147°
2026-04-18 09:12 13.04667 121.35248 32646 ft 466 kts 147°
2026-04-18 09:13 12.99344 121.38972 32836 ft 462 kts 147°
2026-04-18 09:13 12.94042 121.42680 32888 ft 462 kts 147°
2026-04-18 09:14 12.88731 121.46393 32886 ft 461 kts 147°
2026-04-18 09:14 12.83427 121.50098 32887 ft 461 kts 147°
2026-04-18 09:15 12.78145 121.53786 32879 ft 461 kts 147°
2026-04-18 09:15 12.72844 121.57486 32877 ft 461 kts 147°
2026-04-18 09:16 12.67541 121.61186 32874 ft 461 kts 147°
2026-04-18 09:16 12.62246 121.64878 32875 ft 460 kts 147°
2026-04-18 09:17 12.56950 121.68569 32870 ft 460 kts 147°
2026-04-18 09:17 12.51677 121.72242 32872 ft 460 kts 147°
2026-04-18 09:18 12.46391 121.75922 32872 ft 459 kts 147°
2026-04-18 09:18 12.41098 121.79605 32867 ft 459 kts 147°
2026-04-18 09:19 12.35700 121.83065 32869 ft 457 kts 154°
2026-04-18 09:19 12.29891 121.85668 32866 ft 456 kts 158°
2026-04-18 09:20 12.24099 121.88225 32868 ft 456 kts 158°
2026-04-18 09:20 12.18506 121.90650 32867 ft 456 kts 158°
2026-04-18 09:21 12.12673 121.93177 32865 ft 455 kts 158°
2026-04-18 09:21 12.06843 121.95739 32575 ft 456 kts 158°
2026-04-18 09:22 12.03920 121.97012 32330 ft 455 kts 158°
2026-04-18 09:22 12.01002 121.98272 32031 ft 456 kts 158°
2026-04-18 09:22 11.98075 121.99536 31376 ft 459 kts 158°
2026-04-18 09:22 11.95116 122.00820 30456 ft 464 kts 158°
2026-04-18 09:23 11.92152 122.02109 29848 ft 460 kts 158°
2026-04-18 09:23 11.89215 122.03388 29123 ft 456 kts 158°
2026-04-18 09:23 11.86325 122.04647 28563 ft 449 kts 157°
2026-04-18 09:23 11.83468 122.05890 27936 ft 444 kts 157°
2026-04-18 09:24 11.80679 122.07104 27332 ft 439 kts 157°
2026-04-18 09:24 11.77882 122.08321 26725 ft 435 kts 157°
2026-04-18 09:24 11.75105 122.09530 26096 ft 431 kts 157°
2026-04-18 09:24 11.72360 122.10723 25463 ft 428 kts 157°
2026-04-18 09:25 11.69630 122.11910 24875 ft 425 kts 157°
2026-04-18 09:25 11.66917 122.13089 24285 ft 421 kts 157°
2026-04-18 09:25 11.64223 122.14258 23682 ft 419 kts 156°
2026-04-18 09:25 11.61562 122.15418 23067 ft 416 kts 156°
2026-04-18 09:26 11.58914 122.16577 22460 ft 411 kts 156°
2026-04-18 09:26 11.56299 122.17717 21868 ft 407 kts 156°
2026-04-18 09:26 11.53702 122.18846 21275 ft 403 kts 156°
2026-04-18 09:26 11.51165 122.19946 20689 ft 400 kts 156°
2026-04-18 09:27 11.48608 122.21054 20090 ft 397 kts 156°
2026-04-18 09:27 11.46063 122.22159 19476 ft 396 kts 156°
2026-04-18 09:27 11.43536 122.23256 18876 ft 395 kts 156°
2026-04-18 09:27 11.41021 122.24348 18282 ft 393 kts 156°
2026-04-18 09:28 11.38512 122.25435 17667 ft 391 kts 156°
2026-04-18 09:28 11.36012 122.26513 17105 ft 386 kts 156°
2026-04-18 09:28 11.33548 122.27573 16518 ft 383 kts 156°
2026-04-18 09:28 11.31104 122.28628 15941 ft 380 kts 156°
2026-04-18 09:29 11.28672 122.29680 15340 ft 379 kts 156°
2026-04-18 09:29 11.26205 122.30748 14883 ft 401 kts 156°
2026-04-18 09:29 11.23557 122.31899 14817 ft 425 kts 156°
2026-04-18 09:29 11.20804 122.33093 14790 ft 432 kts 156°
2026-04-18 09:30 11.18063 122.34283 14741 ft 425 kts 156°
2026-04-18 09:30 11.15337 122.35228 14608 ft 413 kts 165°
2026-04-18 09:30 11.12576 122.35821 14475 ft 397 kts 167°
2026-04-18 09:30 11.09909 122.36365 14315 ft 382 kts 167°
2026-04-18 09:31 11.07370 122.36881 14131 ft 361 kts 168°
2026-04-18 09:31 11.04976 122.37356 13954 ft 341 kts 168°
2026-04-18 09:31 11.02689 122.37809 13571 ft 330 kts 168°
2026-04-18 09:31 11.00454 122.38253 13007 ft 325 kts 168°
2026-04-18 09:32 10.98259 122.38692 12435 ft 320 kts 167°
2026-04-18 09:32 10.96084 122.39128 11855 ft 316 kts 167°
2026-04-18 09:32 10.93912 122.39390 11301 ft 314 kts 179°
2026-04-18 09:32 10.91788 122.39153 10760 ft 311 kts 192°
2026-04-18 09:33 10.89679 122.38563 10201 ft 308 kts 194°
2026-04-18 09:33 10.87649 122.38000 9657 ft 305 kts 193°
2026-04-18 09:33 10.85614 122.37443 9093 ft 301 kts 193°
2026-04-18 09:33 10.83593 122.36898 8488 ft 299 kts 193°
2026-04-18 09:34 10.81595 122.36362 7929 ft 296 kts 193°
2026-04-18 09:34 10.79616 122.35831 7359 ft 293 kts 193°
2026-04-18 09:34 10.77648 122.35308 6751 ft 291 kts 193°
2026-04-18 09:34 10.75699 122.34791 6195 ft 288 kts 193°
2026-04-18 09:35 10.73764 122.34269 5675 ft 288 kts 194°
2026-04-18 09:35 10.71840 122.33742 5159 ft 285 kts 194°
2026-04-18 09:35 10.69945 122.33225 4656 ft 281 kts 194°
2026-04-18 09:35 10.68085 122.32967 4467 ft 261 kts 172°
2026-04-18 09:36 10.66458 122.33547 4317 ft 240 kts 142°
2026-04-18 09:36 10.65434 122.34757 4171 ft 217 kts 112°
2026-04-18 09:36 10.64958 122.36118 4046 ft 201 kts 106°
2026-04-18 09:36 10.64501 122.37442 3960 ft 183 kts 107°
2026-04-18 09:37 10.64081 122.38609 3832 ft 169 kts 107°
2026-04-18 09:37 10.63688 122.39683 3700 ft 157 kts 107°
2026-04-18 09:37 10.63349 122.40729 3426 ft 154 kts 92°
2026-04-18 09:37 10.63567 122.41737 3161 ft 145 kts 53°
2026-04-18 09:38 10.64340 122.42353 2852 ft 143 kts 19°
2026-04-18 09:38 10.65277 122.42670 2582 ft 143 kts 19°
2026-04-18 09:38 10.66188 122.42992 2466 ft 132 kts 19°
2026-04-18 09:38 10.67062 122.43310 2477 ft 140 kts 20°
2026-04-18 09:39 10.67998 122.43670 2475 ft 145 kts 20°
2026-04-18 09:39 10.68928 122.44026 2472 ft 140 kts 20°
2026-04-18 09:39 10.69816 122.44362 2469 ft 133 kts 20°
2026-04-18 09:39 10.70693 122.44685 2471 ft 137 kts 20°
2026-04-18 09:40 10.71596 122.45021 2334 ft 136 kts 19°
2026-04-18 09:40 10.72446 122.45332 2164 ft 124 kts 18°
2026-04-18 09:40 10.73243 122.45613 1997 ft 121 kts 20°
2026-04-18 09:40 10.74033 122.45907 1837 ft 121 kts 18°
2026-04-18 09:41 10.74835 122.46196 1683 ft 124 kts 19°
2026-04-18 09:41 10.75652 122.46485 1521 ft 125 kts 18°
2026-04-18 09:41 10.76193 122.46680 1420 ft 124 kts 21°
2026-04-18 09:41 10.77225 122.47082 1203 ft 117 kts 20°
2026-04-18 09:42 10.77980 122.47362 1071 ft 125 kts 20°
2026-04-18 09:42 10.78815 122.47643 967 ft 118 kts 20°
2026-04-18 09:42 10.79588 122.47935 792 ft 120 kts 19°
2026-04-18 09:42 10.80121 122.48139 681 ft 125 kts 21°
2026-04-18 09:43 10.80946 122.48455 448 ft 129 kts 21°
2026-04-18 09:43 10.81753 122.48760 292 ft 121 kts 21°
2026-04-18 09:43 10.82549 122.49053 192 ft 124 kts 19°
2026-04-18 09:43 10.83338 122.49341 141 ft 107 kts 19°
2026-04-18 09:44 10.83752 122.49500 140 ft 20 kts 20°
2026-04-18 09:44 10.83767 122.49505 140 ft 0 kts 20°
2026-04-18 09:44 10.83788 122.49513 140 ft 8 kts 19°
2026-04-18 09:44 10.83848 122.49551 140 ft 11 kts 39°
2026-04-18 09:45 10.83873 122.49558 139 ft 1 kts 293°
2026-04-18 09:45 10.83867 122.49549 140 ft 5 kts 239°
2026-04-18 09:45 10.83813 122.49521 140 ft 11 kts 195°
2026-04-18 09:45 10.83723 122.49490 140 ft 16 kts 199°
2026-04-18 09:46 10.83620 122.49454 141 ft 6 kts 198°
2026-04-18 09:46 10.83572 122.49462 141 ft 9 kts 142°
2026-04-18 09:46 10.83539 122.49533 140 ft 13 kts 109°
2026-04-18 09:46 10.83509 122.49624 139 ft 9 kts 112°
2026-04-18 09:47 10.83461 122.49676 139 ft 12 kts 163°
2026-04-18 09:47 10.83370 122.49651 139 ft 16 kts 201°
2026-04-18 09:47 10.83294 122.49624 139 ft 6 kts 200°
2026-04-18 09:47 10.83239 122.49603 139 ft 11 kts 202°
2026-04-18 09:48 10.83169 122.49578 139 ft 7 kts 199°
2026-04-18 09:48 10.83112 122.49557 139 ft 4 kts 201°
2026-04-18 09:48 10.83078 122.49555 139 ft 5 kts 147°
2026-04-18 09:48 10.83070 122.49579 139 ft 1 kts 102°
2026-04-18 09:49 10.83065 122.49599 139 ft 5 kts 109°
2026-04-18 09:49 10.83057 122.49622 139 ft 5 kts 110°
2026-04-18 09:49 10.83053 122.49634 139 ft 0 kts 110°